SUOMI-100 (43804 NORAD) Tracking and Keplerian Element Data

This shows tracking and keplerian element data for the satellite.

Feedback or suggestion? Click here.




ElementValue
Catalog43804
NameSUOMI-100
Epoch Orbit33762
Epoch Day34.71405347
Epoch Year2025
RAAN94.7713
Inclination97.4931
Eccentricity0.0012654
Argument of Perigee222.2811
Mean Anonmoly137.7447
Mean Motion15.14455882
Decay Rate0.00016199
L11 43804U 18099AY 25034.71405347 .00016199 00000+0 88161-3 0 9993
L22 43804 97.4931 94.7713 0012654 222.2811 137.7447 15.14455882337628



Live tracking and technical data element details for SUOMI-100 (NORAD 43804). SUOMI-100 can be tracked NOW for your location showing map with azimuth and elevation plus other details from your city location.







IsCatalogInMostPopularTable: catalog: 43804, numindb: 1266
Update: records affected: 1



GetName: 43804 SUOMI-100

Hit Count: updated at: Wed, 14 May 2025 01:10:34 GMT